Weather History for Kalamazoo, MI

Change the Weather History Date:

Monday, June 17, 2013

  Actual Average Record
Temperature  
Mean Temperature 73 °F 69 °F  
Max Temperature 87 °F 80 °F 94 °F (1957)
Min Temperature 59 °F 58 °F 43 °F (1982)
Degree Days  
Heating Degree Days 0 1  
Month to date heating degree days 36 40  
Since 1 June heating degree days 36 40  
Since 1 July heating degree days 6308 6408  
Cooling Degree Days 8 5  
Month to date cooling degree days 47 65  
Year to date cooling degree days 127 106  
Since 1 June cooling degree days 47 65  
Growing Degree Days 24 (Base 50)    
Moisture  
Dew Point 57 °F    
Average Humidity 64    
Maximum Humidity 97    
Minimum Humidity 30    
Precipitation  
Precipitation 0.01 in 0.11 in 0.85 in (1960)
Month to date precipitation 1.60 2.18  
Year to date precipitation 16.66 14.62  
Sea Level Pressure  
Sea Level Pressure 29.91 in    
Wind  
Wind Speed 5 mph (WSW)    
Max Wind Speed 8 mph    
Max Gust Speed 10 mph    
Visibility 10 miles    
Events Rain , Thunderstorm    
T = Trace of Precipitation, MM = Missing Value Source: NWS Daily Summary

Daily Weather History Graph

Daily Weather History Graph

Search for Another Location

Airport:

Trip Planner

Search our weather history database for the weather conditions in past years. The results will help you decide how hot, cold, wet, or windy it might be!

Date:

Astronomy

Jun. 17, 2013 Rise Set
Actual Time 6:05 AM EDT 9:21 PM EDT
Civil Twilight 5:30 AM EDT 9:55 PM EDT
Nautical Twilight 4:45 AM EDT 10:40 PM EDT
Astronomical Twilight 3:51 AM EDT 11:35 PM EDT
Moon 2:53 PM EDT (6/17) 1:47 AM EDT (6/17)
Length of Visible Light 16h 25m
Length of Day
15h 15m
First Quarter, 60% of the Moon is Illuminated
Jun 17
First Quarter
Jun 23
Full
Jun 30
Last Quarter
Jul 8
New
Jul 15
First Quarter

Hourly Weather History & Observations

Time (EDT) Temp. Heat Index Dew Point Humidity Pressure Visibility Wind Dir Wind Speed Gust Speed Precip Events Conditions
12:53 AM 64.0 °F - 57.0 °F 78% 29.93 in 10.0 mi Calm Calm - N/A   Clear
1:53 AM 63.0 °F - 59.0 °F 87% 29.91 in 10.0 mi Calm Calm - N/A   Partly Cloudy
2:53 AM 62.1 °F - 60.1 °F 93% 29.91 in 10.0 mi Calm Calm - N/A   Partly Cloudy
3:53 AM 61.0 °F - 59.0 °F 93% 29.91 in 10.0 mi Calm Calm - N/A   Clear
4:53 AM 61.0 °F - 57.9 °F 90% 29.91 in 10.0 mi Calm Calm - N/A   Clear
5:53 AM 62.1 °F - 57.9 °F 86% 29.91 in 10.0 mi South 3.5 mph - N/A   Clear
6:53 AM 60.1 °F - 57.9 °F 93% 29.93 in 9.0 mi Calm Calm - N/A   Clear
7:53 AM 64.9 °F - 61.0 °F 87% 29.93 in 9.0 mi Calm Calm - N/A   Clear
8:53 AM 70.0 °F - 63.0 °F 78% 29.94 in 10.0 mi Calm Calm - N/A   Clear
9:53 AM 75.0 °F - 64.0 °F 69% 29.94 in 10.0 mi SSW 4.6 mph - N/A   Clear
10:53 AM 81.0 °F 81.1 °F 57.9 °F 45% 29.93 in 10.0 mi WSW 8.1 mph - N/A   Clear
11:53 AM 82.9 °F 81.8 °F 53.1 °F 36% 29.93 in 10.0 mi West 8.1 mph - N/A   Clear
12:53 PM 84.9 °F 83.3 °F 54.0 °F 34% 29.91 in 10.0 mi WNW 8.1 mph - N/A   Clear
1:53 PM 84.9 °F 83.2 °F 53.1 °F 33% 29.91 in 10.0 mi West 8.1 mph 19.6 mph N/A   Clear
2:53 PM 86.0 °F - 51.1 °F 30% 29.90 in 10.0 mi WSW 13.8 mph - N/A   Partly Cloudy
3:53 PM 87.1 °F 84.9 °F 53.1 °F 31% 29.89 in 10.0 mi WSW 6.9 mph - N/A   Partly Cloudy
4:53 PM 86.0 °F - 52.0 °F 31% 29.88 in 10.0 mi West 15.0 mph 20.7 mph N/A   Partly Cloudy
5:53 PM 84.9 °F - 52.0 °F 32% 29.87 in 10.0 mi West 11.5 mph 17.3 mph N/A   Clear
6:53 PM 82.9 °F 81.8 °F 53.1 °F 36% 29.86 in 10.0 mi West 6.9 mph - N/A   Clear
7:53 PM 81.0 °F 80.8 °F 55.9 °F 42% 29.87 in 10.0 mi NW 4.6 mph - N/A   Clear
8:53 PM 78.1 °F - 57.9 °F 50% 29.87 in 10.0 mi Calm Calm - N/A   Partly Cloudy
9:22 PM 78.8 °F - 59.0 °F 51% 29.90 in 10.0 mi WNW 13.8 mph 19.6 mph 0.00 in Rain , Thunderstorm Light Thunderstorms and Rain
9:43 PM 68.0 °F - 57.2 °F 68% 29.90 in 10.0 mi SW 8.1 mph - 0.01 in Rain , Thunderstorm Light Thunderstorms and Rain
9:50 PM 66.2 °F - 59.0 °F 78% 29.90 in 10.0 mi Calm Calm - 0.01 in   Mostly Cloudy
9:53 PM 66.9 °F - 59.0 °F 76% 29.89 in 10.0 mi Calm Calm - 0.01 in   Mostly Cloudy
10:53 PM 64.9 °F - 60.1 °F 84% 29.92 in - Calm Calm - N/A   Unknown
11:53 PM 66.0 °F - 59.0 °F 78% 29.93 in 10.0 mi WSW 8.1 mph - N/A   Mostly Cloudy